Temp
-12 -12 -12 -12 -12 -12 -12 -12 -12 -12 -12 -12 -12 -12 -12 -12 -12 -12 -12 -12 -12 -12 -11 -11 -11 -11 -11 -11 -11 -11 -11 -11 -10 -10 -10 -10 -10 -10 -10 -10 -10 -10 -10
-13 -13 -13 -12 -12 -12 -12 -12 -12 -12 -12 -12 -12 -12 -12 -12 -12 -12 -12 -12 -12 -12 -12 -12 -11 -11 -11 -11 -11 -11 -11 -11 -10 -10 -10 -10 -10 -10 -10 -10 -10 -10 -10
-12 -13 -13 -13 -13 -13 -13 -12 -12 -12 -12 -12 -12 -12 -12 -12 -12 -12 -12 -12 -12 -12 -12 -12 -12 -12 -11 -11 -11 -11 -11 -11 -11 -11 -10 -10 -10 -10 -10 -10 -10 -10 -10
-12 -12 -13 -13 -13 -13 -13 -13 -13 -13 -13 -13 -12 -12 -12 -12 -12 -12 -12 -12 -12 -12 -12 -12 -12 -12 -12 -12 -11 -11 -11 -11 -11 -11 -11 -11 -11 -10 -10 -10 -10 -10 -10
-12 -12 -12 -13 -13 -13 -14 -14 -13 -13 -13 -13 -13 -13 -13 -13 -13 -13 -13 -13 -13 -12 -12 -12 -12 -12 -12 -12 -12 -12 -11 -11 -11 -11 -11 -11 -11 -11 -11 -11 -11 -11 -11
-13 -13 -12 -13 -13 -13 -13 -13 -14 -14 -14 -14 -14 -14 -14 -14 -14 -13 -13 -13 -13 -13 -13 -13 -12 -12 -12 -12 -12 -12 -12 -12 -12 -11 -11 -11 -11 -11 -11 -11 -11 -11 -11
-13 -13 -13 -13 -13 -13 -14 -14 -14 -13 -14 -14 -14 -14 -14 -14 -14 -14 -14 -14 -14 -14 -13 -13 -13 -13 -13 -12 -12 -12 -12 -12 -12 -12 -11 -12 -11 -11 -11 -12 -11 -11 -11
-13 -13 -13 -13 -13 -14 -14 -14 -13 -14 -14 -14 -13 -13 -14 -14 -15 -14 -14 -14 -14 -14 -14 -14 -14 -13 -13 -13 -13 -12 -13 -13 -13 -13 -12 -12 -12 -12 -12 -12 -12 -12 -12
-14 -14 -14 -14 -14 -14 -14 -14 -15 -15 -15 -15 -14 -14 -13 -13 -14 -15 -15 -15 -14 -14 -14 -14 -14 -14 -13 -13 -13 -13 -13 -13 -13 -13 -13 -13 -12 -12 -12 -12 -12 -12 -12
-14 -15 -15 -15 -15 -15 -16 -15 -15 -15 -16 -16 -16 -15 -15 -14 -14 -14 -15 -15 -14 -14 -14 -14 -14 -14 -13 -13 -13 -13 -13 -14 -14 -14 -13 -13 -13 -13 -13 -12 -12 -12 -12
-15 -16 -16 -16 -16 -16 -16 -17 -17 -17 -17 -17 -16 -16 -16 -15 -15 -14 -14 -15 -15 -15 -15 -14 -14 -14 -14 -14 -14 -14 -14 -13 -13 -14 -14 -14 -13 -13 -13 -13 -13 -12 -12
-17 -17 -17 -17 -17 -17 -17 -17 -17 -16 -16 -17 -17 -17 -16 -16 -16 -15 -15 -15 -15 -16 -15 -15 -15 -15 -15 -15 -14 -14 -14 -13 -13 -13 -13 -13 -13 -13 -13 -13 -13 -13 -13
-17 -17 -18 -18 -18 -18 -18 -18 -18 -18 -17 -17 -17 -17 -17 -17 -17 -16 -16 -15 -15 -15 -16 -16 -16 -15 -15 -15 -15 -15 -14 -14 -14 -14 -14 -13 -13 -13 -13 -13 -13 -13 -13
-19 -19 -19 -19 -19 -19 -19 -19 -19 -19 -19 -18 -18 -18 -19 -18 -18 -17 -17 -16 -16 -16 -15 -15 -16 -16 -16 -15 -15 -15 -15 -14 -14 -14 -14 -14 -14 -13 -13 -13 -13 -13 -13
-20 -20 -20 -20 -20 -20 -20 -20 -20 -20 -20 -20 -20 -19 -19 -19 -19 -19 -18 -17 -17 -16 -16 -16 -16 -16 -17 -16 -15 -15 -15 -15 -15 -14 -14 -14 -14 -14 -14 -13 -13 -13 -13
-21 -21 -21 -21 -21 -21 -21 -21 -21 -21 -21 -21 -21 -21 -21 -21 -20 -19 -19 -19 -19 -17 -15 -17 -17 -16 -16 -16 -17 -16 -15 -15 -15 -15 -15 -14 -14 -15 -14 -14 -14 -14 -14
-22 -22 -22 -22 -22 -22 -22 -22 -22 -22 -22 -22 -21 -21 -21 -21 -21 -21 -21 -20 -19 -18 -17 -16 -18 -19 -17 -17 -17 -17 -16 -16 -16 -16 -15 -15 -15 -15 -15 -15 -15 -14 -14
-22 -23 -23 -23 -23 -23 -23 -23 -23 -23 -23 -23 -23 -22 -22 -22 -22 -22 -22 -22 -21 -20 -19 -17 -17 -19 -19 -19 -19 -18 -17 -17 -16 -16 -16 -16 -16 -15 -15 -15 -15 -15 -15
-23 -24 -24 -24 -24 -24 -24 -24 -24 -24 -24 -24 -23 -23 -23 -23 -22 -22 -22 -22 -22 -22 -21 -19 -18 -18 -19 -20 -20 -20 -19 -18 -18 -18 -17 -17 -16 -16 -16 -16 -15 -15 -16
-24 -24 -24 -24 -25 -25 -25 -25 -25 -25 -25 -25 -25 -24 -24 -24 -23 -23 -23 -22 -22 -22 -22 -21 -20 -19 -19 -20 -20 -21 -20 -20 -20 -19 -19 -18 -18 -17 -17 -16 -16 -15 -16
-25 -26 -26 -27 -27 -28 -28 -28 -29 -29 -29 -28 -28 -28 -27 -26 -26 -25 -24 -23 -23 -22 -22 -21 -21 -21 -20 -20 -20 -21 -21 -21 -21 -21 -20 -20 -19 -19 -18 -18 -17 -17 -17
-28 -29 -30 -30 -30 -31 -31 -31 -31 -31 -30 -30 -29 -29 -28 -28 -27 -27 -26 -26 -25 -24 -23 -22 -22 -21 -21 -21 -21 -21 -21 -21 -21 -21 -21 -21 -21 -20 -19 -19 -19 -19 -19
-31 -31 -31 -31 -31 -31 -31 -31 -31 -31 -30 -30 -30 -29 -29 -29 -29 -28 -28 -27 -27 -27 -26 -26 -24 -24 -23 -23 -22 -21 -21 -21 -21 -21 -22 -21 -21 -21 -20 -20 -20 -20 -20
-32 -32 -32 -32 -32 -32 -32 -32 -32 -31 -31 -30 -30 -30 -30 -29 -29 -29 -28 -28 -28 -28 -28 -28 -27 -26 -26 -25 -25 -24 -23 -22 -21 -21 -22 -21 -22 -22 -22 -22 -21 -21 -21
-32 -32 -32 -32 -32 -33 -32 -32 -32 -31 -31 -31 -31 -30 -31 -30 -30 -30 -30 -29 -29 -29 -29 -28 -28 -28 -28 -28 -27 -27 -26 -25 -22 -22 -23 -23 -22 -22 -23 -24 -23 -22 -22
-33 -33 -33 -33 -33 -33 -33 -32 -32 -32 -31 -31 -31 -32 -32 -32 -31 -31 -31 -30 -30 -30 -30 -30 -30 -30 -29 -29 -29 -28 -28 -27 -26 -25 -24 -24 -24 -25 -23 -24 -24 -23 -23
Height
5831 5831 5830 5829 5829 5829 5829 5829 5829 5829 5830 5830 5830 5830 5830 5830 5830 5831 5831 5831 5831 5832 5832 5832 5833 5834 5835 5836 5837 5838 5838 5840 5840 5842 5843 5844 5846 5847 5850 5851 5852 5853 5853
5823 5823 5824 5823 5822 5821 5821 5821 5821 5821 5822 5821 5822 5822 5822 5822 5822 5823 5824 5824 5824 5824 5824 5825 5825 5826 5826 5827 5828 5830 5831 5832 5832 5834 5836 5837 5839 5840 5842 5843 5844 5845 5847
5816 5815 5813 5813 5813 5812 5813 5813 5813 5813 5813 5813 5812 5813 5813 5814 5814 5815 5815 5815 5815 5815 5815 5815 5816 5816 5817 5818 5819 5820 5822 5822 5823 5825 5826 5829 5830 5832 5834 5836 5836 5838 5839
5807 5808 5807 5805 5804 5803 5803 5802 5802 5803 5802 5803 5804 5804 5805 5805 5805 5805 5805 5806 5806 5806 5806 5806 5806 5807 5808 5809 5810 5811 5813 5814 5814 5815 5818 5820 5821 5823 5824 5826 5827 5829 5830
5797 5797 5796 5796 5795 5794 5793 5791 5791 5791 5791 5792 5793 5794 5795 5795 5796 5796 5796 5795 5795 5795 5795 5795 5796 5797 5798 5799 5801 5802 5803 5805 5806 5807 5808 5811 5813 5814 5815 5816 5817 5819 5820
5786 5786 5785 5784 5784 5782 5781 5780 5780 5780 5780 5780 5780 5781 5782 5783 5784 5786 5786 5786 5785 5785 5784 5784 5785 5786 5786 5788 5790 5791 5793 5795 5797 5797 5799 5802 5802 5804 5806 5808 5809 5810 5811
5777 5774 5774 5773 5772 5771 5770 5769 5767 5767 5767 5767 5767 5767 5769 5770 5771 5771 5772 5773 5774 5774 5775 5775 5775 5775 5775 5777 5778 5779 5781 5784 5786 5787 5788 5791 5793 5794 5795 5797 5799 5800 5802
5764 5763 5762 5760 5759 5758 5757 5756 5755 5754 5753 5753 5754 5754 5756 5756 5756 5758 5759 5759 5760 5761 5762 5762 5763 5764 5764 5766 5766 5768 5769 5771 5774 5777 5776 5779 5781 5783 5785 5786 5788 5790 5792
5752 5750 5748 5746 5745 5745 5744 5743 5742 5741 5740 5738 5738 5738 5739 5742 5743 5742 5744 5744 5745 5746 5747 5747 5749 5750 5751 5753 5755 5756 5757 5759 5761 5764 5765 5765 5769 5771 5773 5775 5777 5779 5780
5739 5737 5735 5732 5731 5729 5728 5727 5726 5725 5724 5724 5723 5722 5722 5723 5726 5732 5729 5729 5730 5731 5732 5733 5735 5737 5738 5740 5741 5743 5744 5746 5747 5749 5751 5752 5754 5757 5760 5763 5765 5767 5769
5725 5723 5721 5718 5717 5714 5711 5711 5711 5711 5709 5707 5706 5706 5705 5704 5705 5709 5717 5718 5715 5716 5718 5718 5719 5720 5721 5723 5726 5728 5730 5732 5734 5735 5737 5739 5740 5742 5745 5748 5751 5754 5757
5708 5707 5704 5703 5701 5699 5697 5695 5693 5693 5692 5691 5689 5688 5688 5688 5687 5686 5691 5700 5703 5702 5701 5702 5704 5704 5705 5707 5710 5712 5713 5716 5718 5720 5723 5726 5726 5729 5731 5734 5737 5740 5743
5690 5686 5684 5683 5681 5680 5678 5677 5675 5673 5672 5670 5669 5668 5667 5666 5667 5667 5668 5671 5681 5686 5686 5685 5685 5687 5688 5689 5691 5694 5697 5699 5701 5704 5706 5709 5712 5714 5718 5720 5723 5726 5729
5672 5668 5664 5661 5658 5657 5656 5654 5653 5651 5650 5649 5647 5646 5646 5644 5643 5643 5645 5645 5651 5658 5667 5669 5669 5668 5669 5671 5673 5674 5678 5680 5683 5686 5689 5693 5696 5699 5702 5705 5708 5711 5715
5652 5650 5646 5642 5638 5636 5634 5631 5628 5627 5626 5624 5623 5622 5621 5619 5620 5620 5619 5620 5620 5628 5639 5646 5649 5650 5650 5652 5654 5656 5659 5661 5664 5667 5670 5674 5678 5682 5685 5688 5692 5696 5700
5634 5631 5627 5623 5619 5616 5613 5610 5607 5604 5602 5600 5598 5598 5596 5595 5596 5594 5594 5596 5596 5596 5603 5618 5623 5627 5629 5632 5633 5635 5638 5640 5644 5647 5650 5654 5658 5662 5667 5671 5675 5679 5683
5614 5610 5606 5602 5598 5594 5590 5588 5585 5582 5581 5578 5573 5570 5569 5567 5568 5569 5570 5570 5571 5570 5572 5582 5593 5599 5604 5607 5610 5611 5614 5618 5622 5626 5629 5633 5638 5642 5647 5652 5658 5662 5666
5592 5587 5582 5577 5572 5568 5564 5560 5558 5554 5552 5551 5549 5547 5544 5541 5540 5540 5541 5543 5546 5546 5545 5549 5557 5569 5575 5579 5582 5587 5590 5594 5598 5603 5606 5610 5616 5622 5627 5632 5637 5644 5649
5566 5561 5556 5551 5545 5540 5535 5531 5527 5525 5523 5520 5518 5516 5515 5513 5513 5511 5510 5512 5514 5516 5519 5522 5527 5530 5541 5548 5554 5559 5564 5569 5572 5575 5580 5587 5592 5598 5604 5612 5616 5622 5628
5540 5535 5529 5524 5518 5513 5507 5502 5499 5496 5494 5491 5487 5484 5482 5481 5480 5480 5480 5481 5481 5484 5487 5490 5496 5501 5507 5516 5521 5527 5532 5537 5545 5548 5554 5559 5565 5572 5580 5588 5595 5600 5605
5514 5508 5502 5497 5491 5485 5479 5475 5472 5470 5466 5464 5460 5455 5452 5450 5448 5448 5446 5449 5448 5449 5452 5457 5464 5466 5480 5482 5488 5492 5499 5504 5515 5523 5527 5534 5539 5546 5556 5562 5569 5575 5581
5489 5484 5479 5475 5470 5464 5458 5453 5449 5447 5443 5438 5434 5430 5425 5422 5419 5417 5416 5416 5417 5416 5419 5421 5428 5433 5446 5447 5450 5456 5464 5467 5483 5494 5494 5508 5508 5519 5529 5536 5543 5549 5557
5471 5466 5462 5457 5453 5446 5440 5435 5429 5424 5419 5414 5409 5404 5401 5396 5392 5390 5389 5388 5389 5386 5385 5387 5393 5402 5402 5410 5413 5421 5425 5432 5449 5457 5458 5474 5481 5495 5503 5509 5517 5522 5530
5455 5450 5445 5439 5434 5427 5421 5414 5408 5402 5397 5392 5386 5381 5377 5373 5368 5366 5365 5364 5363 5361 5360 5361 5363 5369 5371 5374 5376 5379 5385 5392 5408 5425 5425 5437 5451 5469 5470 5480 5489 5497 5504
5438 5432 5427 5422 5416 5409 5401 5395 5387 5381 5377 5372 5367 5360 5354 5350 5347 5344 5341 5341 5341 5340 5337 5338 5340 5341 5344 5344 5346 5347 5353 5354 5371 5384 5388 5401 5422 5431 5438 5450 5461 5470 5479
5420 5415 5410 5403 5397 5390 5381 5374 5366 5361 5358 5354 5349 5344 5339 5333 5331 5328 5326 5325 5325 5323 5323 5322 5322 5322 5322 5323 5321 5319 5323 5325 5333 5340 5359 5360 5385 5389 5401 5423 5433 5441 5451
Wind_Speed
31 32 34 35 35 37 38 38 38 36 35 35 35 35 35 35 35 34 34 34 33 33 34 35 35 35 35 34 33 32 31 30 30 29 30 30 32 32 33 33 32 31 30
35 34 34 35 37 38 38 39 40 40 41 42 42 41 41 40 40 38 37 36 36 36 35 34 35 36 37 37 37 36 35 34 35 34 34 34 34 35 35 35 36 36 34
42 39 38 38 39 40 41 42 42 42 42 43 46 46 47 46 45 44 43 42 41 40 39 39 38 37 36 37 37 37 37 38 39 38 38 37 37 38 38 38 39 39 39
43 45 45 44 44 45 45 45 45 45 47 46 46 47 47 47 48 48 47 47 47 46 46 44 43 42 40 38 37 38 37 38 39 39 40 39 39 39 40 39 40 40 40
45 46 46 47 48 50 49 50 50 50 49 48 49 49 49 49 49 48 47 47 48 49 49 49 49 47 45 43 42 41 40 39 41 41 40 38 38 39 39 39 39 38 39
45 46 48 48 49 51 51 53 54 52 53 52 52 52 53 52 52 51 51 50 49 48 49 50 50 50 49 47 46 46 45 42 41 42 42 40 40 39 39 40 40 39 39
48 47 48 50 50 50 50 51 53 55 56 57 57 57 56 55 55 54 53 53 53 52 51 51 49 49 48 48 48 48 48 47 45 45 45 42 41 41 40 40 42 42 42
50 53 54 54 55 54 55 55 55 55 55 57 59 61 60 58 58 57 57 57 56 55 55 54 53 52 51 49 48 48 48 49 48 47 49 48 45 44 43 42 41 42 43
53 54 54 56 56 57 57 57 56 55 56 58 59 61 62 62 63 61 59 58 58 58 58 58 58 57 56 54 52 51 49 49 49 48 50 52 49 48 47 46 45 43 43
59 59 59 59 58 58 58 58 59 60 59 60 60 61 64 64 62 61 62 64 61 59 58 58 57 59 59 58 56 53 52 51 49 49 50 52 52 51 51 50 49 48 46
65 65 65 63 63 62 62 61 60 61 62 66 68 68 68 68 68 66 61 59 62 63 61 60 59 58 59 59 59 58 55 53 53 53 54 53 54 53 52 50 50 50 50
67 68 68 70 72 73 72 72 71 71 71 70 71 71 73 75 76 75 72 65 64 61 64 64 62 61 60 60 60 59 59 59 58 57 57 57 58 57 56 53 50 49 48
71 72 71 73 74 75 76 80 80 80 80 80 78 77 75 77 80 82 84 81 75 71 67 65 66 67 65 64 62 62 62 62 62 62 60 59 60 60 59 58 56 53 51
74 76 79 78 78 81 84 83 86 82 81 80 81 80 79 79 81 83 85 89 88 83 80 77 72 70 69 69 69 68 66 66 66 65 63 62 60 60 59 59 59 58 56
79 79 82 84 84 86 86 87 90 89 88 87 87 87 87 88 85 84 86 89 93 92 83 85 82 78 77 75 73 73 72 71 71 71 69 67 65 62 61 60 60 59 59
77 79 81 84 87 88 90 91 92 94 94 95 94 93 92 91 92 94 93 92 92 97 98 85 83 87 83 82 80 78 77 75 75 76 76 74 71 68 67 65 63 61 60
84 86 88 89 91 92 92 93 95 95 96 98 100 101 99 99 97 96 97 98 98 100 104 102 90 84 87 88 86 85 84 83 82 80 82 81 79 74 71 69 68 66 65
86 88 89 91 92 93 94 95 96 97 97 97 97 97 99 101 103 102 100 99 98 99 104 108 105 93 87 83 86 88 87 87 89 88 87 85 83 82 79 74 72 70 71
88 89 89 90 91 92 94 95 95 95 96 96 97 97 97 99 100 102 104 104 102 102 101 107 111 108 97 91 87 87 88 90 90 89 90 90 90 88 85 82 78 75 74
88 89 91 92 92 92 92 92 91 90 90 90 92 94 96 97 99 101 102 104 107 105 106 105 108 107 107 102 98 95 92 89 90 92 89 89 89 91 89 86 83 82 78
90 89 86 83 80 78 77 77 77 77 79 80 81 84 86 88 90 92 97 100 106 108 109 108 107 110 108 108 105 101 100 98 94 91 93 90 88 86 87 87 86 84 83
76 72 70 68 68 67 69 71 73 76 77 79 79 79 80 81 83 85 87 89 92 97 103 107 110 110 106 107 109 108 104 103 101 98 95 93 93 91 87 88 88 85 81
65 63 64 64 65 68 71 73 75 75 73 73 72 71 71 72 73 75 76 78 80 83 87 90 96 98 102 103 110 111 111 110 105 103 101 98 97 96 92 88 85 86 85
61 62 63 65 67 69 70 71 72 73 71 70 67 66 67 68 68 69 69 70 71 74 76 79 82 85 89 92 96 101 107 113 113 108 107 105 100 95 93 92 90 86 85
62 64 64 65 66 68 71 72 72 71 67 65 64 65 64 64 59 57 55 55 56 56 62 68 72 75 78 81 84 89 94 100 110 111 108 108 104 101 97 91 90 88 85
62 63 64 66 68 69 71 71 70 66 63 61 58 53 51 53 50 49 48 47 47 50 52 53 54 57 61 65 71 79 85 89 93 99 100 106 105 105 104 95 89 88 85
Wind_Direction
276 274 269 266 264 264 264 263 263 263 264 264 263 264 266 267 268 269 269 270 270 268 266 263 261 259 259 260 260 259 259 258 254 249 244 242 243 244 248 251 252 252 253
268 269 273 274 271 268 266 264 263 262 262 262 263 262 262 263 264 265 266 267 267 268 268 267 266 264 262 261 259 259 259 260 259 256 254 250 250 249 248 249 250 253 255
270 267 265 267 268 269 269 267 267 267 265 263 264 263 264 264 264 264 265 265 265 265 265 264 264 264 264 264 264 260 258 259 260 259 257 254 252 253 253 253 253 254 255
266 268 268 266 266 267 268 267 265 263 265 265 266 267 268 267 266 266 265 264 265 265 264 264 264 264 264 263 264 264 261 259 258 257 256 255 252 252 253 254 255 257 257
270 267 266 265 267 268 268 267 267 268 264 264 265 266 267 268 269 269 268 267 266 265 264 264 264 264 263 263 262 262 261 259 260 258 257 256 256 254 253 252 254 255 256
269 270 270 269 267 264 263 266 268 267 267 267 264 262 263 263 265 267 269 269 268 265 264 263 263 263 263 263 262 262 262 261 260 260 260 257 255 254 254 255 255 255 256
270 268 269 269 269 268 266 265 265 265 267 267 266 265 264 263 262 262 262 264 266 268 267 266 263 262 262 263 262 261 261 260 260 260 259 259 258 257 257 257 258 257 257
266 267 268 268 269 268 268 267 265 265 265 264 266 268 266 264 261 261 261 261 261 262 265 266 266 265 263 261 260 260 260 260 259 259 261 260 259 259 259 258 258 258 258
265 265 264 265 266 268 269 269 267 266 265 264 264 264 266 265 263 262 260 259 259 259 260 261 262 263 263 263 263 262 260 258 259 258 258 260 259 259 258 257 256 256 256
264 264 265 264 263 263 263 264 263 262 261 262 264 264 263 263 261 260 261 261 257 256 256 257 259 261 262 263 262 261 260 259 258 257 256 258 258 257 258 258 258 258 258
265 265 266 267 267 265 263 263 265 266 265 262 259 261 262 263 263 259 253 257 261 261 258 255 255 256 259 260 259 259 258 258 259 259 258 258 259 259 258 258 258 258 258
270 267 267 268 269 270 272 271 271 269 270 268 267 265 263 262 263 262 259 253 251 257 261 260 257 257 257 258 259 258 256 255 256 257 258 259 260 260 260 260 258 257 257
270 271 270 270 271 272 272 273 273 272 272 274 272 269 267 265 263 263 262 261 255 250 254 258 260 260 258 258 257 258 257 257 256 256 256 256 257 258 259 259 258 258 257
274 273 276 277 274 272 272 273 275 277 276 274 272 270 271 270 268 266 264 262 260 259 253 253 257 259 259 258 258 258 257 257 256 257 257 258 259 259 259 257 257 256 257
276 277 277 279 279 278 279 277 278 280 280 281 279 275 273 271 269 270 269 267 264 259 258 255 253 256 258 258 257 258 259 259 261 259 257 258 259 260 260 259 258 257 256
283 284 284 284 284 283 282 281 280 280 280 280 280 279 279 277 273 271 270 269 268 266 260 260 260 256 254 256 257 256 257 258 259 260 261 259 257 258 259 258 257 257 256
286 285 284 284 283 282 281 279 278 278 277 277 277 277 277 277 276 274 271 269 268 266 264 262 262 261 259 255 255 256 256 257 258 259 259 259 258 258 257 258 258 257 256
286 285 284 284 283 282 280 279 278 277 277 276 275 273 273 273 273 273 271 271 269 266 263 260 261 261 260 259 259 257 256 257 257 258 258 257 258 257 256 255 256 257 257
286 285 284 283 282 282 281 280 279 278 277 277 276 274 273 271 270 270 271 271 270 267 264 261 259 260 261 261 260 259 258 258 258 256 255 256 256 255 255 254 253 253 254
286 286 286 285 284 283 282 281 281 280 278 277 276 275 274 272 271 269 268 267 267 267 266 265 259 259 260 262 262 261 260 259 256 256 256 254 252 253 252 252 252 251 251
289 288 288 287 286 286 285 284 283 283 282 282 281 279 277 275 273 271 269 267 266 266 265 264 263 262 261 261 261 260 260 259 258 255 254 255 253 251 251 250 250 250 250
290 290 290 290 289 288 287 286 287 287 287 285 284 282 280 278 276 274 272 271 268 267 265 265 264 263 261 260 259 258 257 257 257 256 254 251 252 253 252 251 250 249 249
290 290 289 288 288 288 288 289 290 291 290 288 287 284 282 281 278 275 273 272 270 270 268 266 264 263 262 262 259 258 256 255 254 254 253 251 251 250 252 252 251 250 249
290 290 290 290 291 292 292 293 294 293 292 292 290 287 286 283 281 279 275 273 270 268 267 266 265 263 262 260 259 259 257 255 253 251 251 251 251 250 249 250 250 250 250
291 292 293 294 293 294 295 296 294 293 293 291 290 289 288 286 285 282 279 276 274 273 270 268 267 265 264 263 262 259 258 257 255 252 250 248 247 247 246 244 247 247 248
293 293 294 295 296 296 297 296 295 294 291 290 287 286 285 286 283 280 279 278 276 274 274 271 272 271 269 266 265 263 262 259 256 254 251 249 245 243 243 241 241 243 243